Lid_Strength_Index
12 11 11 12 12 11 13 14 15 14 13 13 12 11 12 12 11 11 11 10 9 9 10 10 11 11 10 11 11 11 11 11 11 11 10 10 9 9 8 6 5 5 4 3
14 11 11 13 11 11 11 11 12 11 14 11 10 11 12 12 12 12 11 9 9 10 11 12 11 11 12 12 12 11 11 11 10 10 10 10 9 8 7 7 7 6 5 5
17 13 13 16 12 11 11 11 12 15 13 12 12 11 12 12 12 11 10 10 11 12 12 12 12 12 12 12 11 11 11 10 10 10 10 10 10 9 7 7 7 7 6 4
17 14 20 12 9 9 11 11 11 12 12 11 12 11 11 12 11 10 11 12 12 12 12 12 12 12 12 11 11 11 11 10 10 10 10 9 9 8 7 7 8 7 6 4
17 17 14 13 11 11 12 13 10 11 10 11 11 12 13 9 10 11 12 12 12 12 12 12 12 12 12 12 11 11 11 10 10 9 9 9 8 8 8 8 7 6 6 5
15 19 20 13 10 8 8 16 9 10 12 13 13 17 14 10 11 12 12 12 12 12 13 13 12 12 12 12 11 11 10 10 9 9 8 7 7 8 8 7 7 6 5 3
16 17 15 10 8 7 16 15 9 10 12 14 14 12 11 11 11 12 12 12 12 13 14 13 12 12 13 12 12 10 10 10 9 7 6 7 8 8 8 8 7 6 5 4
15 17 18 7 8 12 10 9 10 11 12 12 12 11 11 11 12 13 13 13 13 14 14 13 12 12 12 13 11 10 10 9 8 7 7 7 7 8 8 8 7 7 7 4
13 14 8 8 9 8 9 10 11 11 11 11 11 12 12 13 13 13 13 13 13 14 14 13 12 12 13 13 11 11 11 9 8 8 7 7 8 8 9 8 7 7 5 4
12 10 8 7 8 8 9 10 9 9 9 10 13 13 13 13 13 13 13 14 13 13 14 14 13 13 13 12 11 12 11 9 7 8 8 8 8 8 8 8 7 5 4 4
11 9 8 7 8 9 9 9 9 10 9 11 12 12 13 13 13 13 13 13 13 14 14 14 13 13 13 12 12 12 11 9 7 8 8 8 8 8 8 7 6 6 5 3
13 8 8 9 9 8 9 10 10 9 10 11 11 12 13 13 13 13 13 13 13 13 14 14 13 13 13 12 12 12 11 9 7 8 8 8 8 8 8 9 8 9 9 8
10 7 7 9 8 8 9 8 8 9 11 12 11 12 13 14 13 12 13 13 14 14 13 13 14 14 13 13 12 12 12 10 7 7 7 8 8 8 9 8 7 9 10 8
8 9 10 9 10 9 8 7 8 9 10 10 10 11 13 13 13 14 13 13 13 14 14 14 14 14 13 13 12 13 12 9 7 7 7 7 7 7 8 8 7 6 8 9
8 9 9 8 9 8 8 9 10 10 10 10 10 11 13 14 14 15 13 13 14 15 14 14 14 14 13 13 13 13 12 10 9 7 6 7 7 7 6 6 6 6 7 8
9 8 8 9 9 8 9 11 11 11 11 11 11 11 12 13 13 14 14 13 15 16 16 15 15 14 13 14 14 13 13 12 11 8 7 7 7 7 7 6 6 6 7 8
10 10 10 9 9 10 10 10 10 11 11 11 10 11 12 13 14 14 14 14 15 16 16 16 15 14 14 14 15 14 14 13 13 11 10 9 7 8 8 8 7 7 7 8
9 9 8 8 9 10 9 10 11 11 11 10 9 10 11 13 14 15 14 13 15 16 16 16 15 14 14 14 15 15 15 15 14 14 13 11 11 10 8 8 9 9 7 7
8 8 8 9 9 9 9 10 11 10 9 9 10 11 11 11 12 13 13 13 15 16 15 14 13 14 15 15 15 16 16 16 16 16 15 15 13 12 12 11 10 8 9 8
8 9 9 10 10 10 10 10 10 10 9 10 11 11 12 11 12 12 14 14 14 15 14 14 14 14 14 15 15 16 17 17 17 17 17 16 16 15 14 13 12 11 10 8
9 10 10 10 11 10 10 10 9 10 10 10 12 12 13 13 12 12 14 15 14 14 14 14 15 15 15 15 15 15 17 18 18 18 18 18 17 17 16 15 14 13 12 11
10 10 10 10 11 11 11 11 11 9 11 12 12 12 13 14 13 13 13 15 14 13 15 16 15 15 15 15 16 16 16 17 17 18 18 18 18 18 17 17 16 14 14 13
10 10 10 11 11 11 11 11 11 11 12 12 13 13 14 14 14 14 15 14 14 14 14 15 15 15 15 15 16 16 16 17 18 18 17 18 19 19 18 18 17 15 15 14
10 10 11 10 11 12 13 13 11 11 12 12 12 13 14 14 14 13 13 12 13 13 13 15 15 15 15 16 16 17 17 17 17 17 18 17 17 19 19 19 19 18 16 15
10 10 11 11 12 13 13 13 12 13 13 14 14 13 13 13 14 14 13 13 13 14 13 14 14 15 15 16 16 17 17 17 17 17 17 17 18 18 18 19 19 19 18 16
12 12 12 12 13 13 14 14 15 15 14 15 14 14 14 13 13 14 14 14 14 14 14 13 14 15 15 16 17 17 17 17 17 17 17 17 17 18 18 18 19 19 19 18
13 12 14 14 13 14 14 14 14 15 14 15 15 15 15 14 14 14 14 15 15 14 15 14 15 16 16 16 17 17 17 17 17 17 17 17 17 17 17 17 17 18 19 19